Weather History for Minneapolis Flying Cloud, MN

Change the Weather History Date:

Tuesday, October 29, 2013

  Actual Average Record
Temperature  
Mean Temperature 37 °F -  
Max Temperature 42 °F 50 °F 75 °F (2004)
Min Temperature 32 °F 34 °F 26 °F (2006)
Degree Days  
Heating Degree Days 28    
Moisture  
Dew Point 29 °F    
Average Humidity 69    
Maximum Humidity 89    
Minimum Humidity 59    
Precipitation  
Precipitation 0.02 in - - ()
Sea Level Pressure  
Sea Level Pressure 30.24 in    
Wind  
Wind Speed 7 mph (ENE)    
Max Wind Speed 12 mph    
Max Gust Speed -    
Visibility 10 miles    
Events Rain    
Averages and records for this station are not official NWS values.
T = Trace of Precipitation, MM = Missing Value Source: NWS Daily Summary

Daily Weather History Graph

Daily Weather History Graph

Search for Another Location

Airport:

Trip Planner

Search our weather history database for the weather conditions in past years. The results will help you decide how hot, cold, wet, or windy it might be!

Date:

Astronomy

Oct. 29, 2013 Rise Set
Actual Time 7:48 AM CDT 6:06 PM CDT
Civil Twilight 7:17 AM CDT 6:36 PM CDT
Nautical Twilight 6:43 AM CDT 7:10 PM CDT
Astronomical Twilight 6:09 AM CDT 7:44 PM CDT
Moon 2:26 AM CDT (10/29) 3:31 PM CDT (10/29)
Length of Visible Light 11h 18m
Length of Day
10h 17m
Waning Crescent, 25% of the Moon is Illuminated
Oct 29
Waning Crescent
Nov 3
New
Nov 9
First Quarter
Nov 17
Full
Nov 25
Last Quarter

Hourly Weather History & Observations

Time (CDT) Temp. Windchill Dew Point Humidity Pressure Visibility Wind Dir Wind Speed Gust Speed Precip Events Conditions
12:53 AM 32.0 °F 26.4 °F 24.1 °F 73% 30.41 in 10.0 mi NNE 5.8 mph - N/A   Clear
1:53 AM 34.0 °F 27.2 °F 24.1 °F 67% 30.40 in 10.0 mi NE 8.1 mph - N/A   Overcast
2:53 AM 35.1 °F 27.9 °F 21.9 °F 59% 30.40 in 10.0 mi ENE 9.2 mph - N/A   Overcast
3:53 AM 35.1 °F 31.0 °F 21.9 °F 59% 30.41 in 10.0 mi NE 4.6 mph - N/A   Overcast
4:53 AM 35.1 °F 29.3 °F 23.0 °F 61% 30.39 in 10.0 mi NNE 6.9 mph - N/A   Overcast
5:53 AM 36.0 °F 29.0 °F 24.1 °F 62% 30.37 in 10.0 mi ENE 9.2 mph - N/A   Overcast
6:53 AM 36.0 °F 28.5 °F 24.1 °F 62% 30.34 in 10.0 mi East 10.4 mph - N/A   Overcast
7:53 AM 36.0 °F 30.3 °F 25.0 °F 64% 30.34 in 10.0 mi East 6.9 mph - N/A   Overcast
8:53 AM 36.0 °F 29.6 °F 27.0 °F 70% 30.32 in 10.0 mi East 8.1 mph - N/A   Overcast
9:53 AM 37.0 °F 31.0 °F 27.0 °F 67% 30.31 in 10.0 mi East 8.1 mph - N/A   Overcast
10:09 AM 37.4 °F 31.4 °F 26.6 °F 65% 30.28 in 10.0 mi East 8.1 mph - N/A   Overcast
10:53 AM 37.9 °F 33.5 °F 27.0 °F 65% 30.32 in 10.0 mi ESE 5.8 mph - N/A   Overcast
11:53 AM 37.9 °F 32.1 °F 28.9 °F 70% 30.30 in 10.0 mi ENE 8.1 mph - 0.00 in   Overcast
12:53 PM 39.9 °F 32.9 °F 28.9 °F 65% 30.25 in 10.0 mi ENE 11.5 mph - 0.00 in   Overcast
1:53 PM 41.0 °F 35.8 °F 30.0 °F 65% 30.22 in 10.0 mi ENE 8.1 mph - N/A   Overcast
2:53 PM 41.0 °F 37.1 °F 30.9 °F 67% 30.21 in 10.0 mi ENE 5.8 mph - N/A   Overcast
3:53 PM 42.1 °F 36.6 °F 30.9 °F 65% 30.19 in 10.0 mi ENE 9.2 mph - N/A   Mostly Cloudy
4:53 PM 42.1 °F 36.6 °F 30.9 °F 65% 30.16 in 10.0 mi ENE 9.2 mph - N/A   Overcast
5:53 PM 42.1 °F 37.7 °F 32.0 °F 67% 30.14 in 10.0 mi East 6.9 mph - N/A   Overcast
6:53 PM 41.0 °F 34.7 °F 32.0 °F 70% 30.13 in 10.0 mi East 10.4 mph - N/A   Mostly Cloudy
7:53 PM 42.1 °F 37.1 °F 32.0 °F 67% 30.13 in 10.0 mi East 8.1 mph - N/A   Mostly Cloudy
8:23 PM 41.0 °F 35.2 °F 33.8 °F 76% 30.09 in 10.0 mi ENE 9.2 mph - N/A   Overcast
8:36 PM 42.8 °F 39.3 °F 33.8 °F 70% 30.09 in 10.0 mi ENE 5.8 mph - N/A   Overcast
8:46 PM 41.0 °F 36.4 °F 33.8 °F 76% 30.09 in 10.0 mi ENE 6.9 mph - N/A   Overcast
8:53 PM 42.1 °F 37.1 °F 33.1 °F 70% 30.12 in 10.0 mi ENE 8.1 mph - N/A   Overcast
9:53 PM 41.0 °F 38.0 °F 36.0 °F 82% 30.12 in 7.0 mi NE 4.6 mph - 0.01 in Rain Light Rain
10:53 PM 39.9 °F 35.1 °F 37.0 °F 89% 30.12 in 5.0 mi NE 6.9 mph - 0.01 in Rain Light Rain
11:53 PM 39.9 °F 37.8 °F 37.0 °F 89% 30.10 in 7.0 mi ENE 3.5 mph - 0.00 in   Overcast